Starlink 6189

operational
NORAD ID: 56377 Int'l Des: 2023-061 Owner: SPXS Country: US Constellation: starlink
LEOCIRCULAR

Starlink 6189について

説明を読み込み中...

リアルタイム位置

3D地球を読み込み中...

次回通過

高度履歴

Altitude vs Time

uPlot chart will show altitude changes over time

軌道要素

1 56377U 23061D 25306.31887347 .00000814 00000-0 75297-4 0 9994
2 56377 43.0038 169.6633 0001045 265.9384 94.1339 15.02533731137593
Epoch: Nov 2, 2025 • Age: 20 hours

現在のステータス

高度 565.2 km
速度 7.58 km/s
衛星直下点 -26.16°S, 82.57°W
打ち上げ日 May 4, 2023
運用期間 2.4 years
タイプ internet

技術仕様

分類 Payload
質量 305.00 kg
乾燥質量 290.00 kg
総質量 305.00 kg
長さ 0.20 m
直径 2.80 m
スパン 9.00 m
形状 Box + pan
製造者 SPXS
バスタイプ Starlink
フェーズステータス In Orbit
所有者/国 SPXS/US

大規模コンステレーション

Loading constellations...